Time,TemperatureF,DewpointF,PressureIn,WindDirection,WindDirectionDegrees,WindSpeedMPH,WindSpeedGustMPH,Humidity,HourlyPrecipIn,Conditions,Clouds,dailyrainin,SolarRadiationWatts/m^2,SoftwareType,DateUTC
2013-06-28 00:07:00,72.6,64.2,29.87,WNW,299,0.0,1.0,75,0.00,CLR,CLR,0.00,0.0,WeatherDisplay:10.37,2013-06-28 05:07:00,
2013-06-28 00:12:00,72.6,64.6,29.87,WNW,298,0.0,2.0,76,0.00,CLR,CLR,0.00,0.0,WeatherDisplay:10.37,2013-06-28 05:12:00,
2013-06-28 00:22:00,72.7,64.7,29.87,WNW,303,0.0,3.0,76,0.00,CLR,CLR,0.00,0.0,WeatherDisplay:10.37,2013-06-28 05:22:00,
2013-06-28 00:27:00,72.6,64.2,29.87,NW,320,0.0,0.0,75,0.00,CLR,CLR,0.00,0.0,WeatherDisplay:10.37,2013-06-28 05:27:00,
2013-06-28 00:37:00,72.5,64.5,29.86,NW,320,0.0,1.0,76,0.00,CLR,CLR,0.00,0.0,WeatherDisplay:10.37,2013-06-28 05:37:00,
2013-06-28 00:42:00,72.4,64.4,29.86,NW,315,0.0,2.0,76,0.00,CLR,CLR,0.00,0.0,WeatherDisplay:10.37,2013-06-28 05:42:00,
2013-06-28 00:52:00,72.4,64.4,29.86,West,266,0.0,2.0,76,0.00,CLR,CLR,0.00,0.0,WeatherDisplay:10.37,2013-06-28 05:52:00,
2013-06-28 00:57:00,72.4,64.4,29.86,West,267,0.0,0.0,76,0.00,CLR,CLR,0.00,0.0,WeatherDisplay:10.37,2013-06-28 05:57:00,
2013-06-28 01:07:00,72.6,64.2,29.86,SSW,197,1.0,5.0,75,0.00,CLR,CLR,0.00,0.0,WeatherDisplay:10.37,2013-06-28 06:07:00,
2013-06-28 01:12:00,72.8,64.4,29.86,SSW,207,0.0,0.0,75,0.00,CLR,CLR,0.00,0.0,WeatherDisplay:10.37,2013-06-28 06:12:00,
2013-06-28 01:22:00,72.9,64.5,29.85,WNW,284,0.0,4.0,75,0.00,CLR,CLR,0.00,0.0,WeatherDisplay:10.37,2013-06-28 06:22:00,
2013-06-28 01:27:00,72.9,64.5,29.85,WNW,302,0.0,3.0,75,0.00,CLR,CLR,0.00,0.0,WeatherDisplay:10.37,2013-06-28 06:27:00,
2013-06-28 01:37:00,73.0,64.2,29.85,WSW,254,0.0,3.0,74,0.00,CLR,CLR,0.00,0.0,WeatherDisplay:10.37,2013-06-28 06:37:00,
2013-06-28 01:42:00,73.0,64.2,29.85,West,279,0.0,4.0,74,0.00,CLR,CLR,0.00,0.0,WeatherDisplay:10.37,2013-06-28 06:42:00,
2013-06-28 01:52:00,73.0,64.2,29.85,West,279,0.0,7.0,74,0.00,CLR,CLR,0.00,0.0,WeatherDisplay:10.37,2013-06-28 06:52:00,
2013-06-28 01:57:00,73.0,64.2,29.85,WSW,246,0.0,3.0,74,0.00,CLR,CLR,0.00,0.0,WeatherDisplay:10.37,2013-06-28 06:57:00,
2013-06-28 02:07:00,73.0,64.2,29.85,WNW,282,0.0,4.0,74,0.00,CLR,CLR,0.00,0.0,WeatherDisplay:10.37,2013-06-28 07:07:00,
2013-06-28 02:12:00,73.1,63.9,29.85,WSW,254,0.0,3.0,73,0.00,CLR,CLR,0.00,0.0,WeatherDisplay:10.37,2013-06-28 07:12:00,
2013-06-28 02:22:00,73.2,64.0,29.85,WNW,298,1.0,5.0,73,0.00,CLR,CLR,0.00,0.0,WeatherDisplay:10.37,2013-06-28 07:22:00,
2013-06-28 02:27:00,73.2,64.0,29.85,NW,317,0.0,2.0,73,0.00,CLR,CLR,0.00,0.0,WeatherDisplay:10.37,2013-06-28 07:27:00,
2013-06-28 02:37:00,73.2,64.0,29.85,WNW,292,0.0,6.0,73,0.00,CLR,CLR,0.00,0.0,WeatherDisplay:10.37,2013-06-28 07:37:00,
2013-06-28 02:42:00,73.2,64.0,29.85,West,265,0.0,4.0,73,0.00,CLR,CLR,0.00,0.0,WeatherDisplay:10.37,2013-06-28 07:42:00,
2013-06-28 02:52:00,73.2,64.0,29.85,WNW,298,0.0,10.0,73,0.00,CLR,CLR,0.00,0.0,WeatherDisplay:10.37,2013-06-28 07:52:00,
2013-06-28 02:57:00,73.1,63.9,29.85,WNW,295,1.0,10.0,73,0.00,CLR,CLR,0.00,0.0,WeatherDisplay:10.37,2013-06-28 07:57:00,
2013-06-28 03:07:00,72.9,64.2,29.85,SW,226,0.0,5.0,74,0.00,CLR,CLR,0.00,0.0,WeatherDisplay:10.37,2013-06-28 08:07:00,
2013-06-28 03:12:00,72.8,64.4,29.85,West,261,0.0,3.0,75,0.00,CLR,CLR,0.00,0.0,WeatherDisplay:10.37,2013-06-28 08:12:00,
2013-06-28 03:22:00,72.5,64.1,29.84,WSW,248,0.0,1.0,75,0.00,CLR,CLR,0.00,0.0,WeatherDisplay:10.37,2013-06-28 08:22:00,
2013-06-28 03:27:00,72.5,64.1,29.85,WNW,287,0.0,2.0,75,0.00,CLR,CLR,0.00,0.0,WeatherDisplay:10.37,2013-06-28 08:27:00,
2013-06-28 03:37:00,72.5,64.2,29.85,WNW,293,1.0,8.0,75,0.00,CLR,CLR,0.00,0.0,WeatherDisplay:10.37,2013-06-28 08:37:00,
2013-06-28 03:42:00,72.6,64.2,29.85,WNW,303,1.0,4.0,75,0.00,CLR,CLR,0.00,0.0,WeatherDisplay:10.37,2013-06-28 08:42:00,
2013-06-28 03:52:00,72.6,64.6,29.84,WNW,290,0.0,6.0,76,0.00,CLR,CLR,0.00,0.0,WeatherDisplay:10.37,2013-06-28 08:52:00,
2013-06-28 03:57:00,72.4,64.4,29.84,WNW,296,2.0,7.0,76,0.00,CLR,CLR,0.00,0.0,WeatherDisplay:10.37,2013-06-28 08:57:00,
2013-06-28 04:07:00,72.3,64.7,29.83,West,275,0.0,8.0,77,0.00,FEW,FEW,0.00,0.0,WeatherDisplay:10.37,2013-06-28 09:07:00,
2013-06-28 04:12:00,72.2,64.6,29.83,West,273,0.0,3.0,77,0.00,FEW,FEW,0.00,0.0,WeatherDisplay:10.37,2013-06-28 09:12:00,
2013-06-28 04:22:00,72.0,64.7,29.83,WNW,291,0.0,10.0,78,0.00,FEW,FEW,0.00,0.0,WeatherDisplay:10.37,2013-06-28 09:22:00,
2013-06-28 04:27:00,71.9,64.7,29.84,West,278,0.0,8.0,78,0.00,FEW,FEW,0.00,0.0,WeatherDisplay:10.37,2013-06-28 09:27:00,
2013-06-28 04:37:00,71.7,64.5,29.84,West,268,0.0,7.0,78,0.00,FEW,FEW,0.00,0.0,WeatherDisplay:10.37,2013-06-28 09:37:00,
2013-06-28 04:42:00,71.6,64.4,29.84,West,276,1.0,5.0,78,0.00,FEW,FEW,0.00,0.0,WeatherDisplay:10.37,2013-06-28 09:42:00,
2013-06-28 04:52:00,71.3,64.5,29.84,NW,313,0.0,10.0,79,0.00,FEW,FEW,0.00,0.0,WeatherDisplay:10.37,2013-06-28 09:52:00,
2013-06-28 04:57:00,71.2,64.4,29.84,WNW,289,2.0,6.0,79,0.00,FEW,FEW,0.00,0.0,WeatherDisplay:10.37,2013-06-28 09:57:00,
2013-06-28 05:07:00,71.0,64.5,29.83,West,276,0.0,6.0,80,0.00,BKN,BKN,0.00,0.0,WeatherDisplay:10.37,2013-06-28 10:07:00,
2013-06-28 05:12:00,70.9,64.4,29.84,WNW,286,0.0,9.0,80,0.00,BKN,BKN,0.00,0.0,WeatherDisplay:10.37,2013-06-28 10:12:00,
2013-06-28 05:22:00,70.8,64.0,29.84,NW,312,0.0,6.0,79,0.00,BKN,BKN,0.00,0.0,WeatherDisplay:10.37,2013-06-28 10:22:00,
2013-06-28 05:27:00,70.8,64.0,29.84,WNW,300,1.0,8.0,79,0.00,BKN,BKN,0.00,0.0,WeatherDisplay:10.37,2013-06-28 10:27:00,
2013-06-28 05:37:00,70.7,63.8,29.84,WNW,297,1.0,9.0,79,0.00,BKN,BKN,0.00,0.0,WeatherDisplay:10.37,2013-06-28 10:37:00,
2013-06-28 05:42:00,70.6,63.8,29.84,WNW,301,1.0,5.0,79,0.00,BKN,BKN,0.00,0.0,WeatherDisplay:10.37,2013-06-28 10:42:00,
2013-06-28 05:52:00,70.3,63.5,29.85,WNW,294,1.0,10.0,79,0.00,BKN,BKN,0.00,7.0,WeatherDisplay:10.37,2013-06-28 10:52:00,
2013-06-28 05:57:00,70.2,63.4,29.85,West,265,0.0,7.0,79,0.00,BKN,BKN,0.00,9.8,WeatherDisplay:10.37,2013-06-28 10:57:00,
2013-06-28 06:07:00,70.1,62.9,29.85,West,279,1.0,10.0,78,0.00,FEW,FEW,0.00,15.4,WeatherDisplay:10.37,2013-06-28 11:07:00,
2013-06-28 06:22:00,70.0,62.8,29.86,West,276,1.0,7.0,78,0.00,FEW,FEW,0.00,26.6,WeatherDisplay:10.37,2013-06-28 11:22:00,
2013-06-28 06:27:00,69.9,62.7,29.86,WNW,290,0.0,5.0,78,0.00,FEW,FEW,0.00,29.4,WeatherDisplay:10.37,2013-06-28 11:27:00,
2013-06-28 06:37:00,69.8,62.3,29.86,WNW,290,1.0,7.0,77,0.00,FEW,FEW,0.00,39.2,WeatherDisplay:10.37,2013-06-28 11:37:00,
2013-06-28 06:42:00,69.8,62.3,29.86,West,280,0.0,3.0,77,0.00,FEW,FEW,0.00,36.4,WeatherDisplay:10.37,2013-06-28 11:42:00,
2013-06-28 06:52:00,69.9,62.4,29.87,NW,306,1.0,7.0,77,0.00,FEW,FEW,0.00,44.8,WeatherDisplay:10.37,2013-06-28 11:52:00,
2013-06-28 06:57:00,69.9,62.0,29.87,NW,317,1.0,4.0,76,0.00,FEW,FEW,0.00,44.8,WeatherDisplay:10.37,2013-06-28 11:57:00,
2013-06-28 07:07:00,70.1,62.2,29.87,NW,311,0.0,6.0,76,0.00,FEW,FEW,0.00,49.0,WeatherDisplay:10.37,2013-06-28 12:07:00,
2013-06-28 07:22:00,70.6,61.9,29.87,WNW,298,2.0,8.0,74,0.00,FEW,FEW,0.00,51.8,WeatherDisplay:10.37,2013-06-28 12:22:00,
2013-06-28 07:27:00,70.8,62.1,29.88,WNW,299,0.0,7.0,74,0.00,FEW,FEW,0.00,54.6,WeatherDisplay:10.37,2013-06-28 12:27:00,
2013-06-28 07:37:00,71.1,62.4,29.88,West,280,1.0,6.0,74,0.00,FEW,FEW,0.00,56.0,WeatherDisplay:10.37,2013-06-28 12:37:00,
2013-06-28 07:42:00,71.3,62.2,29.88,WNW,286,1.0,4.0,73,0.00,FEW,FEW,0.00,56.0,WeatherDisplay:10.37,2013-06-28 12:42:00,
2013-06-28 07:52:00,71.7,62.2,29.88,WNW,286,1.0,7.0,72,0.00,FEW,FEW,0.00,58.8,WeatherDisplay:10.37,2013-06-28 12:52:00,
2013-06-28 07:57:00,71.9,62.0,29.88,WNW,285,1.0,6.0,71,0.00,FEW,FEW,0.00,61.6,WeatherDisplay:10.37,2013-06-28 12:57:00,
2013-06-28 08:07:00,72.3,61.9,29.88,WNW,301,1.0,7.0,70,0.00,FEW,FEW,0.00,61.6,WeatherDisplay:10.37,2013-06-28 13:07:00,
2013-06-28 08:22:00,72.9,62.1,29.88,NW,314,0.0,5.0,69,0.00,FEW,FEW,0.00,140.0,WeatherDisplay:10.37,2013-06-28 13:22:00,
2013-06-28 08:27:00,73.1,62.3,29.88,NW,309,1.0,6.0,69,0.00,FEW,FEW,0.00,285.6,WeatherDisplay:10.37,2013-06-28 13:27:00,
2013-06-28 08:37:00,73.7,63.3,29.88,WNW,296,0.0,5.0,70,0.00,FEW,FEW,0.00,68.6,WeatherDisplay:10.37,2013-06-28 13:37:00,
2013-06-28 08:42:00,74.0,62.8,29.88,WNW,283,2.0,7.0,68,0.00,FEW,FEW,0.00,68.6,WeatherDisplay:10.37,2013-06-28 13:42:00,
2013-06-28 08:52:00,74.6,62.4,29.88,WNW,283,2.0,5.0,66,0.00,FEW,FEW,0.00,71.4,WeatherDisplay:10.37,2013-06-28 13:52:00,
2013-06-28 08:57:00,74.9,62.7,29.88,WNW,299,1.0,4.0,66,0.00,FEW,FEW,0.00,71.4,WeatherDisplay:10.37,2013-06-28 13:57:00,
2013-06-28 09:07:00,75.4,62.3,29.88,West,275,1.0,8.0,64,0.00,FEW,FEW,0.00,71.4,WeatherDisplay:10.37,2013-06-28 14:07:00,
2013-06-28 09:12:00,75.7,62.7,29.88,WNW,288,2.0,6.0,64,0.00,FEW,FEW,0.00,74.2,WeatherDisplay:10.37,2013-06-28 14:12:00,
2013-06-28 09:22:00,76.5,62.6,29.88,West,266,1.0,8.0,62,0.00,FEW,FEW,0.00,75.6,WeatherDisplay:10.37,2013-06-28 14:22:00,
2013-06-28 09:27:00,76.9,62.4,29.88,West,270,1.0,7.0,61,0.00,FEW,FEW,0.00,86.8,WeatherDisplay:10.37,2013-06-28 14:27:00,
2013-06-28 09:37:00,77.6,63.1,29.87,WNW,286,2.0,16.0,61,0.00,FEW,FEW,0.00,78.4,WeatherDisplay:10.37,2013-06-28 14:37:00,
2013-06-28 09:42:00,77.9,62.4,29.88,WNW,284,5.0,12.0,59,0.00,FEW,FEW,0.00,78.4,WeatherDisplay:10.37,2013-06-28 14:42:00,
2013-06-28 09:52:00,78.3,62.8,29.87,WNW,289,4.0,11.0,59,0.00,FEW,,0.00,81.2,WeatherDisplay:10.37,2013-06-28 14:52:00,
2013-06-28 09:57:00,78.5,60.5,29.86,WNW,295,4.4,9.0,54,0.00,FEW,,0.00,81.2,WeatherDisplay:10.37,2013-06-28 14:57:00,
2013-06-28 10:02:00,78.7,60.7,29.87,West,269,3.0,14.0,54,0.00,CLR,CLR,0.00,84.0,WeatherDisplay:10.37,2013-06-28 15:02:00,
2013-06-28 10:07:00,78.8,60.7,29.87,WNW,289,4.3,8.1,54,0.00,CLR,,0.00,84.0,WeatherDisplay:10.37,2013-06-28 15:07:00,
2013-06-28 10:12:00,78.9,59.8,29.86,WSW,258,3.4,6.9,52,0.00,CLR,,0.00,91.0,WeatherDisplay:10.37,2013-06-28 15:12:00,
2013-06-28 10:18:00,79.1,60.5,29.86,SW,231,3.0,5.8,53,0.00,CLR,,0.00,756.0,WeatherDisplay:10.37,2013-06-28 15:18:00,
2013-06-28 10:23:00,79.3,59.6,29.86,West,261,3.7,23.0,51,0.00,CLR,,0.00,1090.6,WeatherDisplay:10.37,2013-06-28 15:23:00,
2013-06-28 10:28:00,79.4,61.3,29.86,NW,305,3.1,8.1,54,0.00,CLR,,0.00,260.4,WeatherDisplay:10.37,2013-06-28 15:28:00,
2013-06-28 10:33:00,79.8,58.9,29.86,SSW,196,6.5,12.7,49,0.00,CLR,,0.00,1127.0,WeatherDisplay:10.37,2013-06-28 15:33:00,
2013-06-28 10:39:00,80.0,59.1,29.86,WSW,238,5.5,11.5,49,0.00,CLR,,0.00,1146.6,WeatherDisplay:10.37,2013-06-28 15:39:00,
2013-06-28 10:44:00,80.4,59.5,29.86,NNW,339,1.3,8.1,49,0.00,CLR,,0.00,1169.0,WeatherDisplay:10.37,2013-06-28 15:44:00,
2013-06-28 10:49:00,80.8,59.9,29.86,NNW,344,4.3,11.5,49,0.00,CLR,,0.00,1184.4,WeatherDisplay:10.37,2013-06-28 15:49:00,
2013-06-28 10:57:00,81.2,59.1,29.86,WNW,299,9.0,16.0,47,0.00,CLR,,0.00,1208.2,WeatherDisplay:10.37,2013-06-28 15:57:00,
2013-06-28 11:02:00,81.2,58.5,29.86,WNW,290,6.0,13.0,46,0.00,CLR,CLR,0.00,1220.8,WeatherDisplay:10.37,2013-06-28 16:02:00,
2013-06-28 11:07:00,81.4,59.2,29.86,WSW,242,5.5,11.5,47,0.00,CLR,,0.00,1233.4,WeatherDisplay:10.37,2013-06-28 16:07:00,
2013-06-28 11:13:00,81.4,58.6,29.86,WNW,302,5.5,13.8,46,0.00,CLR,,0.00,1250.2,WeatherDisplay:10.37,2013-06-28 16:13:00,
2013-06-28 11:18:00,81.6,59.4,29.85,West,272,3.4,6.9,47,0.00,CLR,,0.00,1254.4,WeatherDisplay:10.37,2013-06-28 16:18:00,
2013-06-28 11:23:00,81.9,59.1,29.86,WNW,292,5.9,13.8,46,0.00,CLR,,0.00,1272.6,WeatherDisplay:10.37,2013-06-28 16:23:00,
2013-06-28 11:28:00,82.2,59.4,29.85,NW,319,10.5,21.9,46,0.00,CLR,,0.00,1285.2,WeatherDisplay:10.37,2013-06-28 16:28:00,
2013-06-28 11:34:00,82.2,58.7,29.85,NNW,339,9.6,14.0,45,0.00,CLR,,0.00,1289.4,WeatherDisplay:10.37,2013-06-28 16:34:00,
2013-06-28 11:39:00,82.0,59.2,29.85,NW,309,1.5,11.5,46,0.00,CLR,,0.00,1302.0,WeatherDisplay:10.37,2013-06-28 16:39:00,
2013-06-28 11:44:00,82.5,59.6,29.85,NW,316,3.9,12.0,46,0.00,CLR,,0.00,1316.0,WeatherDisplay:10.37,2013-06-28 16:44:00,
2013-06-28 11:49:00,82.9,60.0,29.85,WNW,288,5.8,17.0,46,0.00,CLR,,0.00,1335.6,WeatherDisplay:10.37,2013-06-28 16:49:00,
2013-06-28 11:55:00,82.9,60.0,29.85,ESE,123,5.0,11.5,46,0.00,CLR,,0.00,1346.8,WeatherDisplay:10.37,2013-06-28 16:55:00,
2013-06-28 12:00:00,82.8,59.9,29.85,NW,321,6.9,19.6,46,0.00,CLR,,0.00,1356.6,WeatherDisplay:10.37,2013-06-28 17:00:00,
2013-06-28 12:05:00,82.9,60.0,29.85,NW,310,4.3,9.2,46,0.00,FEW,,0.00,1397.2,WeatherDisplay:10.37,2013-06-28 17:05:00,
2013-06-28 12:10:00,82.7,58.6,29.85,SW,232,8.0,12.7,44,0.00,FEW,,0.00,1415.4,WeatherDisplay:10.37,2013-06-28 17:10:00,
2013-06-28 12:16:00,82.6,58.5,29.85,WNW,286,8.0,17.0,44,0.00,FEW,,0.00,1454.6,WeatherDisplay:10.37,2013-06-28 17:16:00,
2013-06-28 12:21:00,82.9,58.7,29.85,WNW,299,6.6,21.0,44,0.00,FEW,,0.00,1484.0,WeatherDisplay:10.37,2013-06-28 17:21:00,
2013-06-28 12:26:00,82.9,58.7,29.84,West,277,5.0,15.0,44,0.00,FEW,,0.00,1457.4,WeatherDisplay:10.37,2013-06-28 17:26:00,
2013-06-28 12:31:00,83.2,58.4,29.84,WSW,249,8.2,20.7,43,0.00,FEW,,0.00,1451.8,WeatherDisplay:10.37,2013-06-28 17:31:00,
2013-06-28 12:37:00,83.4,58.6,29.84,West,263,3.7,12.7,43,0.00,FEW,,0.00,1457.4,WeatherDisplay:10.37,2013-06-28 17:37:00,
2013-06-28 12:42:00,83.8,58.3,29.84,West,280,11.5,13.8,42,0.00,FEW,,0.00,1516.2,WeatherDisplay:10.37,2013-06-28 17:42:00,
2013-06-28 12:47:00,84.0,58.4,29.84,WNW,291,9.0,17.0,42,0.00,FEW,FEW,0.00,208.6,WeatherDisplay:10.37,2013-06-28 17:47:00,
2013-06-28 12:52:00,83.8,58.3,29.84,NW,306,6.7,15.0,42,0.00,FEW,,0.00,1432.2,WeatherDisplay:10.37,2013-06-28 17:52:00,
2013-06-28 12:57:00,84.0,57.8,29.84,NNW,346,9.5,17.3,41,0.00,FEW,,0.00,1418.2,WeatherDisplay:10.37,2013-06-28 17:57:00,
2013-06-28 13:03:00,84.0,56.4,29.83,West,271,7.4,17.3,39,0.00,FEW,,0.00,1444.8,WeatherDisplay:10.37,2013-06-28 18:03:00,
2013-06-28 13:08:00,84.1,56.5,29.83,South,179,10.9,15.0,39,0.00,FEW,,0.00,1449.0,WeatherDisplay:10.37,2013-06-28 18:08:00,
2013-06-28 13:13:00,84.2,57.9,29.83,SSW,206,4.7,10.4,41,0.00,FEW,,0.00,1458.8,WeatherDisplay:10.37,2013-06-28 18:13:00,
2013-06-28 13:18:00,84.3,55.9,29.83,WNW,297,7.1,15.0,38,0.00,FEW,,0.00,1471.4,WeatherDisplay:10.37,2013-06-28 18:18:00,
2013-06-28 13:24:00,84.7,57.7,29.83,WSW,249,5.4,16.1,40,0.00,FEW,,0.00,1488.2,WeatherDisplay:10.37,2013-06-28 18:24:00,
2013-06-28 13:29:00,84.8,56.4,29.83,WNW,285,10.0,11.5,38,0.00,FEW,,0.00,1591.8,WeatherDisplay:10.37,2013-06-28 18:29:00,
2013-06-28 13:34:00,84.8,57.8,29.83,WSW,256,3.9,12.0,40,0.00,FEW,,0.00,1481.2,WeatherDisplay:10.37,2013-06-28 18:34:00,
2013-06-28 13:39:00,85.1,58.8,29.82,West,260,5.4,12.0,41,0.00,FEW,,0.00,250.6,WeatherDisplay:10.37,2013-06-28 18:39:00,
2013-06-28 13:42:00,84.9,57.2,29.82,North,350,2.1,4.0,39,0.00,FEW,,0.00,268.8,WeatherDisplay:10.37,2013-06-28 18:42:00,
2013-06-28 13:47:00,84.6,56.9,29.83,West,281,8.0,15.0,39,0.00,FEW,FEW,0.00,1023.4,WeatherDisplay:10.37,2013-06-28 18:47:00,
2013-06-28 13:52:00,84.8,56.4,29.82,SW,232,9.4,19.6,38,0.00,FEW,,0.00,1458.8,WeatherDisplay:10.37,2013-06-28 18:52:00,
2013-06-28 13:58:00,84.8,57.1,29.82,WSW,240,9.1,16.1,39,0.00,FEW,,0.00,1523.2,WeatherDisplay:10.37,2013-06-28 18:58:00,
2013-06-28 14:03:00,84.6,57.6,29.82,West,267,6.6,6.9,40,0.00,FEW,,0.00,1523.2,WeatherDisplay:10.37,2013-06-28 19:03:00,
2013-06-28 14:08:00,85.0,56.5,29.82,NNW,335,4.6,8.1,38,0.00,FEW,,0.00,1442.0,WeatherDisplay:10.37,2013-06-28 19:08:00,
2013-06-28 14:13:00,85.4,59.0,29.82,NW,313,4.5,19.0,41,0.00,FEW,,0.00,1454.6,WeatherDisplay:10.37,2013-06-28 19:13:00,
2013-06-28 14:19:00,85.6,55.6,29.82,WNW,302,11.1,19.6,36,0.00,FEW,,0.00,1412.6,WeatherDisplay:10.37,2013-06-28 19:19:00,
2013-06-28 14:24:00,85.4,56.2,29.82,NW,305,6.2,19.6,37,0.00,FEW,,0.00,1279.6,WeatherDisplay:10.37,2013-06-28 19:24:00,
2013-06-28 14:29:00,85.0,55.8,29.81,NNW,331,5.8,18.0,37,0.00,FEW,,0.00,351.4,WeatherDisplay:10.37,2013-06-28 19:29:00,
2013-06-28 14:34:00,84.8,55.6,29.81,NW,307,8.6,16.1,37,0.00,FEW,,0.00,1383.2,WeatherDisplay:10.37,2013-06-28 19:34:00,
2013-06-28 14:40:00,85.2,57.4,29.81,South,185,2.1,17.3,39,0.00,FEW,,0.00,1127.0,WeatherDisplay:10.37,2013-06-28 19:40:00,
2013-06-28 14:45:00,85.2,55.2,29.81,NW,312,4.8,15.0,36,0.00,FEW,,0.00,1418.2,WeatherDisplay:10.37,2013-06-28 19:45:00,
2013-06-28 14:50:00,85.1,55.9,29.81,SSW,201,9.0,14.0,37,0.00,FEW,,0.00,259.0,WeatherDisplay:10.37,2013-06-28 19:50:00,
2013-06-28 14:55:00,84.8,55.6,29.81,NW,313,5.6,13.8,37,0.00,FEW,,0.00,1538.6,WeatherDisplay:10.37,2013-06-28 19:55:00,
2013-06-28 15:01:00,85.1,55.9,29.81,NW,325,6.5,11.5,37,0.00,FEW,,0.00,1419.6,WeatherDisplay:10.37,2013-06-28 20:01:00,
2013-06-28 15:06:00,85.2,56.7,29.80,WSW,246,7.6,13.8,38,0.00,FEW,,0.00,243.6,WeatherDisplay:10.37,2013-06-28 20:06:00,
2013-06-28 15:11:00,85.1,56.6,29.80,SW,215,12.0,26.5,38,0.00,FEW,,0.00,1402.8,WeatherDisplay:10.37,2013-06-28 20:11:00,
2013-06-28 15:16:00,85.1,55.9,29.80,West,274,12.1,25.0,37,0.00,FEW,,0.00,1292.2,WeatherDisplay:10.37,2013-06-28 20:16:00,
2013-06-28 15:22:00,85.2,56.0,29.80,SSE,166,7.8,12.7,37,0.00,FEW,,0.00,1348.2,WeatherDisplay:10.37,2013-06-28 20:22:00,
2013-06-28 15:27:00,85.5,57.0,29.80,WNW,300,8.4,14.0,38,0.00,FEW,,0.00,1265.6,WeatherDisplay:10.37,2013-06-28 20:27:00,
2013-06-28 15:32:00,85.8,56.5,29.80,WNW,284,9.0,20.0,37,0.00,FEW,FEW,0.00,1265.6,WeatherDisplay:10.37,2013-06-28 20:32:00,
2013-06-28 15:37:00,85.7,55.7,29.80,NNE,26,9.8,19.6,36,0.00,FEW,,0.00,1198.4,WeatherDisplay:10.37,2013-06-28 20:37:00,
2013-06-28 15:42:00,85.6,57.1,29.80,North,355,7.0,11.5,38,0.00,FEW,,0.00,1267.0,WeatherDisplay:10.37,2013-06-28 20:42:00,
2013-06-28 15:47:00,85.6,56.3,29.79,NNE,24,6.3,18.4,37,0.00,FEW,,0.00,364.0,WeatherDisplay:10.37,2013-06-28 20:47:00,
2013-06-28 15:53:00,85.6,56.3,29.80,North,350,6.7,16.1,37,0.00,FEW,,0.00,1185.8,WeatherDisplay:10.37,2013-06-28 20:53:00,
2013-06-28 15:58:00,85.4,56.2,29.80,NNW,335,7.3,18.0,37,0.00,FEW,,0.00,1265.6,WeatherDisplay:10.37,2013-06-28 20:58:00,
2013-06-28 16:03:00,85.3,55.3,29.79,WNW,284,3.7,9.2,36,0.00,SCT,,0.00,1314.6,WeatherDisplay:10.37,2013-06-28 21:03:00,
2013-06-28 16:08:00,85.6,57.1,29.79,NW,319,1.7,10.4,38,0.00,SCT,,0.00,337.4,WeatherDisplay:10.37,2013-06-28 21:08:00,
2013-06-28 16:14:00,86.1,57.5,29.79,WNW,292,4.1,11.5,38,0.00,SCT,,0.00,1275.4,WeatherDisplay:10.37,2013-06-28 21:14:00,
2013-06-28 16:19:00,86.2,55.3,29.79,NW,311,8.8,18.4,35,0.00,SCT,,0.00,1269.8,WeatherDisplay:10.37,2013-06-28 21:19:00,
2013-06-28 16:24:00,86.3,55.4,29.79,West,267,5.1,9.2,35,0.00,SCT,,0.00,1146.6,WeatherDisplay:10.37,2013-06-28 21:24:00,
2013-06-28 16:30:00,86.3,56.2,29.79,WNW,284,3.6,11.5,36,0.00,SCT,,0.00,1132.6,WeatherDisplay:10.37,2013-06-28 21:30:00,
2013-06-28 16:35:00,85.9,55.1,29.79,WNW,296,5.3,11.0,35,0.00,SCT,,0.00,1127.0,WeatherDisplay:10.37,2013-06-28 21:35:00,
2013-06-28 16:40:00,85.6,55.6,29.79,NE,51,4.6,15.0,36,0.00,SCT,,0.00,208.6,WeatherDisplay:10.37,2013-06-28 21:40:00,
2013-06-28 16:45:00,85.2,54.5,29.79,NW,304,3.6,12.7,35,0.00,SCT,,0.00,285.6,WeatherDisplay:10.37,2013-06-28 21:45:00,
2013-06-28 16:51:00,84.9,55.7,29.79,NNW,327,2.5,11.5,37,0.00,SCT,,0.00,1020.6,WeatherDisplay:10.37,2013-06-28 21:51:00,
2013-06-28 16:56:00,84.8,54.1,29.79,WSW,257,9.2,18.4,35,0.00,SCT,,0.00,201.6,WeatherDisplay:10.37,2013-06-28 21:56:00,
2013-06-28 17:01:00,84.6,54.7,29.79,West,278,5.5,15.0,36,0.00,SCT,,0.00,1029.0,WeatherDisplay:10.37,2013-06-28 22:01:00,
2013-06-28 17:06:00,84.7,54.0,29.79,West,272,6.8,15.0,35,0.00,SCT,,0.00,140.0,WeatherDisplay:10.37,2013-06-28 22:06:00,
2013-06-28 17:12:00,84.2,55.1,29.78,West,279,5.2,13.8,37,0.00,SCT,,0.00,418.6,WeatherDisplay:10.37,2013-06-28 22:12:00,
2013-06-28 17:17:00,84.0,54.9,29.78,WNW,288,5.3,8.1,37,0.00,SCT,,0.00,130.2,WeatherDisplay:10.37,2013-06-28 22:17:00,
2013-06-28 17:22:00,83.5,54.5,29.78,West,265,8.0,15.0,37,0.00,SCT,SCT,0.00,309.4,WeatherDisplay:10.37,2013-06-28 22:22:00,
2013-06-28 17:27:00,83.8,55.5,29.78,West,277,3.0,18.0,38,0.00,SCT,SCT,0.00,217.0,WeatherDisplay:10.37,2013-06-28 22:27:00,
2013-06-28 17:32:00,83.9,54.1,29.78,West,277,5.0,13.0,36,0.00,SCT,SCT,0.00,177.8,WeatherDisplay:10.37,2013-06-28 22:32:00,
2013-06-28 17:37:00,83.6,53.8,29.78,NW,315,5.5,11.5,36,0.00,SCT,,0.00,231.0,WeatherDisplay:10.37,2013-06-28 22:37:00,
2013-06-28 17:42:00,83.8,56.2,29.78,WSW,251,2.4,8.1,39,0.00,SCT,,0.00,182.0,WeatherDisplay:10.37,2013-06-28 22:42:00,
2013-06-28 17:48:00,83.7,55.4,29.78,WNW,289,7.7,13.8,38,0.00,SCT,,0.00,243.6,WeatherDisplay:10.37,2013-06-28 22:48:00,
2013-06-28 17:53:00,83.8,56.9,29.78,WNW,282,5.7,9.2,40,0.00,SCT,,0.00,259.0,WeatherDisplay:10.37,2013-06-28 22:53:00,
2013-06-28 17:58:00,83.9,56.3,29.78,NW,309,4.7,16.0,39,0.00,SCT,,0.00,177.8,WeatherDisplay:10.37,2013-06-28 22:58:00,
2013-06-28 18:03:00,83.7,56.1,29.78,West,261,4.5,6.9,39,0.00,SCT,,0.00,140.0,WeatherDisplay:10.37,2013-06-28 23:03:00,
2013-06-28 18:09:00,83.5,57.3,29.77,North,5,2.8,12.7,41,0.00,SCT,,0.00,137.2,WeatherDisplay:10.37,2013-06-28 23:09:00,
2013-06-28 18:14:00,83.5,57.3,29.77,WNW,291,1.5,2.3,41,0.00,SCT,,0.00,184.8,WeatherDisplay:10.37,2013-06-28 23:14:00,
2013-06-28 18:19:00,83.4,57.2,29.77,NW,310,3.1,10.4,41,0.00,SCT,,0.00,127.4,WeatherDisplay:10.37,2013-06-28 23:19:00,
2013-06-28 18:24:00,83.2,57.7,29.77,West,277,1.9,8.0,42,0.00,SCT,,0.00,117.6,WeatherDisplay:10.37,2013-06-28 23:24:00,
2013-06-28 18:30:00,83.1,56.3,29.77,NW,321,1.9,11.5,40,0.00,SCT,,0.00,78.4,WeatherDisplay:10.37,2013-06-28 23:30:00,
2013-06-28 18:35:00,83.0,56.9,29.77,West,276,9.4,11.0,41,0.00,SCT,,0.00,81.2,WeatherDisplay:10.37,2013-06-28 23:35:00,
2013-06-28 18:40:00,83.0,56.2,29.77,WSW,256,4.0,8.1,40,0.00,SCT,,0.00,93.8,WeatherDisplay:10.37,2013-06-28 23:40:00,
2013-06-28 18:45:00,82.9,56.8,29.77,WNW,300,6.2,13.8,41,0.00,SCT,,0.00,75.6,WeatherDisplay:10.37,2013-06-28 23:45:00,
2013-06-28 18:51:00,82.9,56.8,29.77,WSW,242,6.1,13.8,41,0.00,SCT,,0.00,71.4,WeatherDisplay:10.37,2013-06-28 23:51:00,
2013-06-28 18:56:00,82.7,55.9,29.77,SW,224,4.0,13.8,40,0.00,SCT,,0.00,74.2,WeatherDisplay:10.37,2013-06-28 23:56:00,
2013-06-28 19:01:00,82.6,56.5,29.77,West,275,2.0,8.1,41,0.00,SCT,,0.00,65.8,WeatherDisplay:10.37,2013-06-29 00:01:00,
2013-06-28 19:06:00,82.4,56.3,29.77,NW,309,3.2,11.5,41,0.00,SCT,,0.00,74.2,WeatherDisplay:10.37,2013-06-29 00:06:00,
2013-06-28 19:12:00,82.3,56.9,29.77,NW,325,6.6,12.7,42,0.00,SCT,,0.00,74.2,WeatherDisplay:10.37,2013-06-29 00:12:00,
2013-06-28 19:17:00,82.1,57.4,29.77,West,268,3.3,10.4,43,0.00,SCT,,0.00,44.8,WeatherDisplay:10.37,2013-06-29 00:17:00,
2013-06-28 19:22:00,81.9,57.2,29.77,WNW,284,3.0,13.0,43,0.00,SCT,SCT,0.00,56.0,WeatherDisplay:10.37,2013-06-29 00:22:00,
2013-06-28 19:27:00,81.8,57.1,29.77,WNW,296,8.0,16.0,43,0.00,SCT,SCT,0.00,46.2,WeatherDisplay:10.37,2013-06-29 00:27:00,
2013-06-28 19:32:00,81.5,57.5,29.77,NNW,334,3.3,13.0,44,0.00,SCT,,0.00,44.8,WeatherDisplay:10.37,2013-06-29 00:32:00,
2013-06-28 19:37:00,81.3,58.5,29.77,NW,311,4.2,8.1,46,0.00,SCT,,0.00,39.2,WeatherDisplay:10.37,2013-06-29 00:37:00,
2013-06-28 19:42:00,81.1,58.4,29.77,NE,37,10.0,15.0,46,0.00,SCT,,0.00,35.0,WeatherDisplay:10.37,2013-06-29 00:42:00,
2013-06-28 19:48:00,80.9,58.8,29.78,NNW,346,4.3,9.0,47,0.00,SCT,,0.00,32.2,WeatherDisplay:10.37,2013-06-29 00:48:00,
2013-06-28 19:53:00,80.8,59.3,29.78,West,261,0.7,7.0,48,0.00,SCT,,0.00,29.4,WeatherDisplay:10.37,2013-06-29 00:53:00,
2013-06-28 19:58:00,80.5,59.6,29.78,West,265,6.0,10.4,49,0.00,SCT,,0.00,26.6,WeatherDisplay:10.37,2013-06-29 00:58:00,
2013-06-28 20:03:00,80.2,59.3,29.77,NNW,337,4.7,9.2,49,0.00,SCT,,0.00,26.6,WeatherDisplay:10.37,2013-06-29 01:03:00,
2013-06-28 20:09:00,80.1,59.2,29.77,NNW,327,2.6,10.4,49,0.00,SCT,,0.00,25.2,WeatherDisplay:10.37,2013-06-29 01:09:00,
2013-06-28 20:14:00,79.9,59.0,29.77,NW,307,2.1,11.5,49,0.00,SCT,,0.00,22.4,WeatherDisplay:10.37,2013-06-29 01:14:00,
2013-06-28 20:19:00,79.8,58.9,29.78,NNW,338,6.1,12.7,49,0.00,SCT,,0.00,19.6,WeatherDisplay:10.37,2013-06-29 01:19:00,
2013-06-28 20:25:00,79.7,58.8,29.77,WNW,284,0.9,5.8,49,0.00,SCT,,0.00,16.8,WeatherDisplay:10.37,2013-06-29 01:25:00,
2013-06-28 20:30:00,79.5,58.7,29.77,WSW,254,2.5,8.1,49,0.00,SCT,,0.00,15.4,WeatherDisplay:10.37,2013-06-29 01:30:00,
2013-06-28 20:35:00,79.3,59.0,29.77,SW,232,1.7,6.9,50,0.00,SCT,,0.00,12.6,WeatherDisplay:10.37,2013-06-29 01:35:00,
2013-06-28 20:40:00,79.1,58.9,29.77,NNW,344,2.4,4.6,50,0.00,SCT,,0.00,9.8,WeatherDisplay:10.37,2013-06-29 01:40:00,
2013-06-28 20:46:00,78.9,58.7,29.77,WSW,257,1.9,9.0,50,0.00,SCT,,0.00,7.0,WeatherDisplay:10.37,2013-06-29 01:46:00,
2013-06-28 20:51:00,78.7,59.0,29.77,WSW,246,2.0,9.2,51,0.00,SCT,,0.00,0.0,WeatherDisplay:10.37,2013-06-29 01:51:00,
2013-06-28 20:56:00,78.6,58.4,29.77,NNW,329,2.2,6.9,50,0.00,SCT,,0.00,0.0,WeatherDisplay:10.37,2013-06-29 01:56:00,
2013-06-28 21:01:00,78.4,58.2,29.78,NW,311,4.0,8.1,50,0.00,FEW,,0.00,0.0,WeatherDisplay:10.37,2013-06-29 02:01:00,
2013-06-28 21:07:00,78.3,57.6,29.78,NNW,327,1.9,6.9,49,0.00,FEW,,0.00,0.0,WeatherDisplay:10.37,2013-06-29 02:07:00,
2013-06-28 21:12:00,78.2,57.5,29.78,West,266,0.5,10.4,49,0.00,FEW,,0.00,0.0,WeatherDisplay:10.37,2013-06-29 02:12:00,
2013-06-28 21:17:00,78.0,57.3,29.78,WNW,300,1.0,12.0,49,0.00,FEW,FEW,0.00,0.0,WeatherDisplay:10.37,2013-06-29 02:17:00,
2013-06-28 21:22:00,77.9,57.2,29.78,WSW,256,1.2,4.0,49,0.00,FEW,,0.00,0.0,WeatherDisplay:10.37,2013-06-29 02:22:00,
2013-06-28 21:28:00,77.7,57.0,29.78,NNW,338,0.4,10.4,49,0.00,FEW,,0.00,0.0,WeatherDisplay:10.37,2013-06-29 02:28:00,
2013-06-28 21:33:00,77.5,56.8,29.78,WNW,293,3.5,9.0,49,0.00,FEW,,0.00,0.0,WeatherDisplay:10.37,2013-06-29 02:33:00,
2013-06-28 21:38:00,77.5,56.8,29.78,West,272,1.6,6.9,49,0.00,FEW,,0.00,0.0,WeatherDisplay:10.37,2013-06-29 02:38:00,
2013-06-28 21:43:00,77.3,56.6,29.78,WNW,303,1.9,8.1,49,0.00,FEW,,0.00,0.0,WeatherDisplay:10.37,2013-06-29 02:43:00,
2013-06-28 21:49:00,77.2,57.1,29.78,NW,313,2.1,3.5,50,0.00,FEW,,0.00,0.0,WeatherDisplay:10.37,2013-06-29 02:49:00,
2013-06-28 21:54:00,77.0,56.4,29.78,NW,310,1.4,8.1,49,0.00,FEW,,0.00,0.0,WeatherDisplay:10.37,2013-06-29 02:54:00,
2013-06-28 21:59:00,77.0,56.4,29.78,NW,320,3.1,6.9,49,0.00,FEW,,0.00,0.0,WeatherDisplay:10.37,2013-06-29 02:59:00,
2013-06-28 22:04:00,77.0,56.4,29.79,NW,320,3.6,8.0,49,0.00,CLR,,0.00,0.0,WeatherDisplay:10.37,2013-06-29 03:04:00,
2013-06-28 22:10:00,76.9,56.8,29.79,NNW,333,4.6,12.7,50,0.00,CLR,,0.00,0.0,WeatherDisplay:10.37,2013-06-29 03:10:00,
2013-06-28 22:15:00,76.8,56.8,29.79,North,349,1.9,6.9,50,0.00,CLR,,0.00,0.0,WeatherDisplay:10.37,2013-06-29 03:15:00,
2013-06-28 22:20:00,76.6,56.6,29.79,NNW,338,0.1,2.3,50,0.00,CLR,,0.00,0.0,WeatherDisplay:10.37,2013-06-29 03:20:00,
2013-06-28 22:25:00,76.3,56.8,29.79,WNW,289,4.3,9.2,51,0.00,CLR,,0.00,0.0,WeatherDisplay:10.37,2013-06-29 03:25:00,
2013-06-28 22:31:00,76.2,57.3,29.79,NW,314,1.9,4.6,52,0.00,CLR,,0.00,0.0,WeatherDisplay:10.37,2013-06-29 03:31:00,
2013-06-28 22:36:00,76.1,57.2,29.79,WSW,254,0.8,3.5,52,0.00,CLR,,0.00,0.0,WeatherDisplay:10.37,2013-06-29 03:36:00,
2013-06-28 22:41:00,76.0,57.6,29.79,WSW,257,0.5,5.0,53,0.00,CLR,,0.00,0.0,WeatherDisplay:10.37,2013-06-29 03:41:00,
2013-06-28 22:46:00,75.8,57.4,29.79,WNW,302,1.1,5.8,53,0.00,CLR,,0.00,0.0,WeatherDisplay:10.37,2013-06-29 03:46:00,
2013-06-28 22:52:00,75.5,57.7,29.79,West,266,0.1,1.2,54,0.00,CLR,,0.00,0.0,WeatherDisplay:10.37,2013-06-29 03:52:00,
2013-06-28 22:57:00,75.2,57.9,29.79,WNW,302,0.2,2.0,55,0.00,CLR,,0.00,0.0,WeatherDisplay:10.37,2013-06-29 03:57:00,
2013-06-28 23:01:00,74.9,57.6,29.79,SW,219,0.2,1.2,55,0.00,CLR,,0.00,0.0,WeatherDisplay:10.37,2013-06-29 04:01:00,
2013-06-28 23:02:00,74.8,58.1,29.79,West,272,0.0,7.0,56,0.00,CLR,CLR,0.00,0.0,WeatherDisplay:10.37,2013-06-29 04:02:00,
2013-06-28 23:06:00,74.5,57.8,29.78,NW,314,0.1,0.0,56,0.00,CLR,,0.00,0.0,WeatherDisplay:10.37,2013-06-29 04:06:00,
2013-06-28 23:11:00,74.2,58.0,29.78,NW,314,0.7,3.5,57,0.00,CLR,,0.00,0.0,WeatherDisplay:10.37,2013-06-29 04:11:00,
2013-06-28 23:16:00,73.9,57.7,29.78,NW,314,0.6,2.3,57,0.00,CLR,,0.00,0.0,WeatherDisplay:10.37,2013-06-29 04:16:00,
2013-06-28 23:22:00,73.6,58.4,29.78,NW,313,0.1,1.2,59,0.00,CLR,,0.00,0.0,WeatherDisplay:10.37,2013-06-29 04:22:00,
2013-06-28 23:27:00,73.3,58.1,29.78,NW,311,0.0,3.0,59,0.00,CLR,CLR,0.00,0.0,WeatherDisplay:10.37,2013-06-29 04:27:00,
2013-06-28 23:32:00,73.1,57.9,29.78,West,265,0.0,1.0,59,0.00,CLR,CLR,0.00,0.0,WeatherDisplay:10.37,2013-06-29 04:32:00,
2013-06-28 23:37:00,72.8,58.6,29.78,WNW,288,0.0,0.0,61,0.00,CLR,,0.00,0.0,WeatherDisplay:10.37,2013-06-29 04:37:00,
2013-06-28 23:42:00,72.5,58.3,29.78,WNW,288,0.0,0.0,61,0.00,CLR,,0.00,0.0,WeatherDisplay:10.37,2013-06-29 04:42:00,
2013-06-28 23:48:00,72.2,58.0,29.78,WNW,288,0.0,1.2,61,0.00,CLR,,0.00,0.0,WeatherDisplay:10.37,2013-06-29 04:48:00,
2013-06-28 23:53:00,72.1,58.4,29.77,WNW,303,0.3,3.5,62,0.00,CLR,,0.00,0.0,WeatherDisplay:10.37,2013-06-29 04:53:00,
2013-06-28 23:58:00,71.9,58.6,29.78,WNW,285,0.0,1.2,63,0.00,CLR,,0.00,0.0,WeatherDisplay:10.37,2013-06-29 04:58:00,